RH
79 76 63 57 68 72 65 67 76 75 83 95 96 95 68 22 30 45 59 10 13 25 28 27 27 23 34 23 22 31 56 65 54 46 38 27 25 19 13 14 15 14 11 21 38
84 79 69 73 73 72 70 69 76 79 74 81 78 71 27 36 56 81 6 17 18 26 35 36 29 19 42 28 24 33 50 51 40 36 33 27 26 24 17 16 17 16 17 25 36
93 87 76 71 68 67 72 75 68 67 71 71 70 84 29 63 84 46 25 22 29 31 29 24 18 15 36 26 27 29 36 29 24 22 24 26 26 21 20 19 16 19 18 14 23
94 87 84 71 68 75 87 78 69 58 58 59 76 94 61 82 17 29 17 17 24 23 22 23 30 23 20 36 28 30 24 22 20 18 19 19 17 19 18 18 15 16 14 14 15
85 85 78 78 74 79 80 70 53 44 48 45 70 96 74 84 69 6 18 20 21 20 26 29 33 32 28 20 22 28 26 23 21 20 19 17 19 18 17 15 15 13 12 13 15
84 83 77 76 76 71 66 56 44 35 39 37 89 99 98 66 10 16 24 23 30 34 36 31 36 30 28 21 21 17 17 19 19 19 20 20 21 18 16 15 15 14 14 14 14
87 82 84 81 73 62 56 46 36 34 36 42 95 99 89 52 15 27 26 24 17 24 35 29 29 24 24 28 25 26 31 29 23 19 20 16 18 18 15 16 16 13 12 12 12
84 85 92 83 63 55 49 41 32 30 45 56 90 98 82 17 14 27 27 26 21 16 15 14 15 18 22 23 26 31 32 39 24 20 19 18 26 17 14 14 14 13 12 12 12
90 90 93 76 66 57 46 33 28 36 58 91 97 94 85 39 43 23 22 24 17 18 17 17 14 19 20 30 38 39 50 41 32 21 23 22 27 19 18 16 18 18 18 18 17
87 97 85 76 69 60 44 26 39 55 70 94 90 96 67 36 28 24 22 23 21 24 22 19 25 26 33 37 47 48 45 40 38 26 22 26 25 20 18 18 17 17 18 16 15
98 87 79 76 68 55 51 47 71 89 82 72 68 60 39 23 17 17 18 19 22 27 32 29 36 42 34 34 31 33 36 37 29 23 25 24 24 20 18 20 20 20 18 16 14
82 75 80 76 66 48 68 75 42 42 52 60 67 59 42 40 30 25 18 20 25 40 32 37 43 32 28 28 31 32 36 35 28 24 23 23 23 20 20 20 19 19 21 18 16
83 90 79 62 42 40 54 54 37 36 56 31 34 54 49 35 31 30 22 22 31 40 40 45 36 28 30 31 34 34 36 36 34 29 26 28 31 29 26 27 24 22 28 57 57
91 73 58 42 50 61 61 41 38 54 57 34 32 28 31 30 37 25 15 18 23 28 31 37 28 31 33 34 29 36 30 31 34 36 42 35 55 34 32 28 25 25 71 69 69
67 58 46 51 78 71 50 40 46 70 67 30 22 19 28 34 29 27 19 22 30 30 28 37 29 29 30 30 26 31 29 33 34 43 48 39 54 34 44 83 80 72 72 74 72
65 55 55 57 69 59 56 46 61 97 67 32 30 33 38 35 21 27 25 22 23 29 29 30 23 24 27 23 24 25 32 41 42 51 64 42 50 57 87 89 72 73 74 78 77
64 60 64 69 73 64 56 70 98 98 25 34 38 31 32 25 24 32 33 34 38 44 43 34 32 26 24 28 24 28 48 70 75 69 72 38 51 53 81 74 70 72 83 82 81
71 56 41 51 73 66 68 87 99 27 26 17 16 16 19 14 12 12 23 29 45 45 40 36 40 26 34 31 32 41 47 73 82 70 47 41 60 76 74 67 64 79 78 81 85
54 64 68 62 64 67 86 98 51 31 20 20 16 16 18 18 19 24 24 25 30 30 60 57 60 36 38 38 31 42 55 40 61 54 73 56 72 72 65 66 74 85 81 81 79
79 88 80 68 61 74 91 72 28 22 20 18 21 23 28 25 26 24 24 23 27 26 24 39 50 51 42 36 36 40 43 56 82 81 84 59 53 78 75 72 68 81 87 82 79
75 90 65 53 66 92 86 48 28 23 22 28 28 30 28 30 30 30 29 34 28 31 32 44 60 52 36 47 49 48 58 71 67 79 83 87 80 83 80 76 78 77 82 86 84
84 94 53 52 93 93 63 35 25 26 27 28 29 34 40 38 37 34 35 41 39 40 52 56 65 78 48 37 34 37 67 88 99 90 81 80 68 71 75 71 76 82 79 82 84
88 68 43 62 89 74 36 36 36 32 35 34 36 39 39 41 43 38 36 34 38 38 50 45 64 77 38 38 55 63 53 59 81 95 98 95 78 70 77 78 77 81 85 83 83
92 83 61 69 64 61 51 41 43 38 41 37 47 50 47 46 41 44 46 42 47 44 53 50 64 62 73 60 58 62 46 42 68 97 94 84 92 77 86 91 86 83 86 84 84
92 86 63 84 68 55 48 45 52 52 42 40 48 52 52 59 51 50 52 52 46 42 50 59 73 65 66 61 57 59 58 47 48 59 94 83 93 95 90 88 84 77 78 84 88
90 80 71 55 48 52 56 40 43 37 45 50 49 43 42 48 49 60 59 56 60 47 54 69 76 65 52 51 53 60 60 51 44 41 49 61 84 94 96 81 84 84 85 90 91
64 61 72 60 49 60 47 41 42 39 37 39 42 43 45 53 46 49 52 54 53 57 63 67 79 89 65 58 64 70 68 53 41 53 72 84 94 95 98 95 96 93 89 92 94
Wind_Speed
16 15 14 12 13 13 14 16 17 17 18 20 20 21 22 24 28 25 9 19 8 4 9 6 7 4 3 3 3 4 3 4 5 6 9 16 15 11 4 5 7 10 9 3 18
18 16 14 13 13 14 15 15 17 19 20 20 21 21 21 23 27 18 27 17 12 11 9 10 5 4 2 3 3 5 5 7 8 9 8 12 16 21 9 7 7 7 9 13 4
19 17 15 14 14 14 15 17 18 20 21 21 20 19 17 20 7 7 3 6 8 10 12 8 5 3 5 3 5 5 10 5 7 10 12 14 18 17 16 12 6 9 9 3 7
20 18 17 15 14 15 17 18 20 19 20 20 19 16 15 5 6 3 2 3 6 9 8 6 5 4 4 7 6 6 9 9 10 15 14 17 20 20 12 12 8 9 8 4 7
24 20 18 16 14 14 17 19 19 19 20 19 16 12 7 3 12 18 10 5 6 8 8 5 4 5 3 4 3 8 14 14 14 14 16 16 18 20 19 8 11 10 9 10 8
25 21 18 15 15 15 16 18 20 20 20 15 13 9 3 8 12 10 13 9 7 9 6 7 5 4 5 5 6 8 9 7 7 8 6 6 9 5 7 11 13 8 12 11 10
25 20 18 15 14 15 16 18 20 21 18 13 11 8 7 18 4 4 10 11 11 13 4 11 9 4 4 5 4 4 5 7 4 4 5 3 19 10 9 9 14 18 18 15 18
23 19 18 15 13 14 16 19 22 19 16 11 5 8 9 15 14 17 17 15 17 15 16 15 9 4 4 3 8 6 3 3 1 6 7 6 18 15 14 12 19 23 16 16 17
23 19 16 12 12 14 16 20 20 15 11 3 5 6 10 12 6 16 17 10 13 18 20 14 2 3 2 3 5 4 5 10 9 5 8 6 12 10 11 11 10 10 9 10 10
22 20 15 12 11 13 19 16 13 11 5 5 6 4 9 4 4 5 11 16 7 5 3 3 3 2 2 4 7 5 4 7 7 5 5 13 13 13 11 10 14 10 10 10 11
22 16 12 12 12 11 17 4 0 3 9 12 11 6 3 5 6 8 9 5 1 3 4 3 3 8 10 9 6 8 9 14 15 11 5 8 13 17 13 10 14 13 16 16 18
15 12 12 11 12 12 8 4 3 1 6 18 19 20 26 14 6 6 14 6 5 5 3 1 10 14 11 10 10 10 13 17 16 13 6 15 21 20 12 10 16 18 16 18 21
14 12 10 10 11 12 14 7 1 3 3 6 10 12 10 11 8 6 10 7 4 8 6 9 11 11 13 13 11 10 9 6 11 8 7 5 17 16 7 8 12 15 8 13 16
14 10 8 7 5 5 6 5 1 3 2 5 8 7 10 7 5 8 10 6 5 7 7 8 14 14 13 9 14 12 8 7 7 5 10 4 11 7 8 16 17 12 10 12 18
10 7 6 6 5 2 2 3 3 3 2 6 8 11 10 7 2 4 12 3 7 8 4 7 4 4 5 4 4 7 6 5 5 5 6 16 5 4 9 10 19 19 15 15 16
6 4 3 7 9 2 4 2 5 2 7 7 6 10 8 7 3 4 3 1 4 5 5 8 4 4 6 6 5 1 2 4 3 0 9 18 7 2 2 6 16 18 19 15 17
4 5 5 5 3 1 2 2 4 4 10 7 7 10 11 6 8 6 6 3 2 2 3 5 6 4 5 8 3 4 5 3 4 0 6 4 4 5 4 12 11 13 15 16 16
2 3 5 6 1 3 3 1 4 1 4 4 4 6 4 2 1 2 4 4 6 3 0 2 5 5 9 4 10 8 8 5 6 4 10 8 6 2 5 8 10 8 9 17 22
3 3 1 9 4 3 2 3 1 3 3 4 2 3 3 3 4 3 6 4 4 10 3 4 4 11 6 8 2 4 5 9 5 7 6 4 2 2 5 5 5 9 11 12 13
5 0 3 8 8 4 1 5 3 5 4 4 3 5 4 4 4 4 5 4 3 8 3 4 5 3 8 7 6 5 1 1 2 3 5 4 4 2 6 8 9 7 9 9 10
3 1 5 7 7 0 3 1 5 5 2 3 4 4 5 3 5 3 4 6 3 3 6 4 1 3 6 5 7 9 6 5 4 4 4 4 4 4 7 6 6 5 9 11 14
3 2 10 10 2 3 2 3 6 4 7 6 4 6 5 4 4 3 4 5 4 1 2 3 3 4 4 11 13 9 5 3 3 5 4 4 9 6 8 5 9 9 9 8 10
2 2 6 5 2 1 2 5 8 4 7 4 4 5 5 3 3 3 4 4 6 4 2 1 3 4 10 4 6 5 7 9 9 8 4 3 5 4 4 10 10 9 9 10 11
2 2 2 1 2 4 4 3 4 6 5 4 5 6 5 4 5 3 5 6 8 5 3 1 3 4 4 9 9 14 15 10 5 4 8 9 12 11 10 9 7 9 7 9 11
0 2 2 2 2 5 3 4 7 3 3 3 4 4 4 3 5 4 5 5 6 3 4 3 2 1 6 11 14 16 15 15 13 13 8 10 16 8 7 10 9 9 9 12 15
2 2 3 2 2 6 4 2 6 8 3 2 4 2 5 3 2 2 0 1 4 1 2 4 3 3 14 12 14 16 16 17 15 15 15 17 11 4 12 11 11 10 10 12 13
2 1 2 3 3 4 2 4 6 4 5 7 4 3 4 1 3 6 8 7 8 7 5 5 3 2 8 6 12 11 9 15 13 7 9 10 3 8 7 13 12 10 11 11 12
Wind_Direction
246 257 266 272 282 288 294 303 307 311 315 319 322 325 327 329 320 316 251 261 238 182 207 240 258 235 210 239 214 138 247 231 241 230 254 293 299 290 295 314 325 336 328 231 156
240 246 256 265 272 286 293 296 303 308 312 317 321 326 330 333 325 281 286 269 234 238 228 209 232 164 198 224 209 174 216 235 241 257 275 283 282 292 311 314 307 331 355 360 351
231 241 246 255 268 279 286 292 298 305 309 315 319 324 331 336 312 250 321 134 198 216 216 213 236 180 195 190 204 209 241 267 272 279 276 275 289 280 288 279 265 277 291 202 273
230 231 244 250 264 276 284 287 295 302 305 310 314 320 329 336 286 302 139 109 198 209 191 187 182 173 214 202 225 257 270 259 263 260 266 269 270 276 251 263 234 243 240 200 179
231 230 240 254 261 271 281 289 295 300 303 307 309 317 338 247 249 255 260 224 190 179 201 188 190 173 214 232 241 226 254 258 258 257 264 273 268 266 274 256 267 277 270 260 242
230 233 239 248 264 274 283 292 297 300 302 303 299 297 247 254 265 277 234 202 206 194 202 192 209 207 273 245 232 269 274 281 270 250 243 262 263 273 291 285 292 274 278 270 243
223 232 239 245 260 276 287 294 298 302 297 294 287 245 244 245 217 139 184 242 243 222 245 246 269 199 330 301 234 248 292 302 238 266 277 340 282 265 273 287 285 281 275 267 269
221 223 237 247 264 280 292 296 298 295 295 293 243 210 254 264 286 264 252 243 240 240 232 266 284 226 192 296 345 345 316 301 269 307 283 116 284 292 283 277 276 271 273 277 276
212 210 226 247 275 286 294 297 294 291 282 210 177 209 260 297 236 247 238 230 229 238 245 259 285 217 327 74 7 321 266 285 298 242 265 190 278 288 300 295 289 271 272 263 265
204 208 215 241 266 292 300 298 302 275 252 202 251 213 258 256 204 222 202 231 228 229 173 169 55 246 17 106 229 227 239 260 239 265 264 287 276 268 273 281 280 273 262 256 257
199 210 220 247 261 282 301 349 54 221 233 195 188 223 250 310 277 226 196 168 75 103 164 187 146 223 227 211 221 237 273 273 275 274 253 257 273 284 284 286 289 289 290 284 277
194 211 227 249 266 275 278 240 238 250 285 231 243 238 273 286 297 255 200 158 146 211 164 39 223 229 230 232 226 236 253 268 281 270 256 293 284 282 271 260 268 275 282 280 279
185 205 232 259 269 265 216 223 159 294 271 272 209 226 230 216 227 260 147 174 159 196 214 212 238 230 222 245 250 243 233 236 273 292 269 279 285 286 278 283 280 279 307 352 334
186 207 231 253 275 226 205 176 18 107 292 250 198 221 177 155 238 212 179 142 206 210 219 235 239 238 245 231 234 251 253 287 280 308 292 122 289 302 287 296 295 291 19 1 357
180 208 224 214 287 231 103 147 120 97 237 156 151 168 152 172 124 192 178 118 185 212 170 240 291 282 277 231 213 244 211 258 289 270 320 284 248 303 347 3 8 3 0 346 14
175 193 256 251 224 222 345 225 115 185 237 174 136 172 145 202 224 130 130 28 190 214 202 238 222 216 241 272 239 296 22 338 279 218 277 279 207 354 45 358 4 346 343 347 16
235 202 216 258 159 10 352 96 139 224 151 142 170 169 183 203 203 167 178 190 251 214 278 303 270 261 239 266 251 181 75 326 320 342 237 317 331 266 318 323 332 334 329 343 9
181 207 178 218 243 308 122 135 221 181 17 14 82 99 148 102 127 190 89 103 21 39 345 280 328 18 353 253 213 187 161 169 243 241 287 311 264 1 340 317 301 310 1 1 348
115 80 179 192 196 214 103 196 303 29 356 348 65 112 120 98 66 71 60 56 53 27 68 0 262 324 42 340 210 212 152 215 253 269 286 246 107 183 338 323 25 342 26 16 337
78 84 232 182 179 173 133 255 113 41 346 333 72 27 96 33 66 52 39 26 75 38 15 352 297 339 311 325 23 354 49 290 356 278 250 258 269 236 322 324 348 358 10 9 352
96 73 178 169 171 143 200 211 93 48 69 33 53 74 78 92 77 61 54 100 74 21 63 2 169 305 9 15 358 345 335 333 281 174 245 288 256 214 240 240 288 48 26 11 7
148 99 162 175 138 227 227 19 106 96 64 63 57 61 66 63 72 94 85 49 13 87 56 346 273 287 271 288 277 277 346 32 279 327 299 260 269 199 237 350 76 40 26 18 17
122 162 180 182 169 183 52 79 58 43 37 47 71 49 45 69 82 62 61 65 47 63 138 350 349 334 324 338 18 62 358 341 306 252 226 259 286 216 100 80 62 43 19 18 18
141 91 326 171 239 138 114 80 104 32 44 34 78 56 60 55 51 1 33 15 22 4 155 109 194 193 244 278 290 298 303 300 299 287 319 286 301 318 130 109 71 61 36 18 18
113 230 193 212 341 85 101 125 120 99 60 36 31 78 77 44 353 30 23 350 358 38 40 86 241 181 282 280 282 276 281 276 260 265 258 302 305 1 109 95 71 55 42 25 17
107 107 348 87 88 80 35 63 156 107 102 62 109 59 60 86 89 271 350 228 231 319 87 359 213 348 297 290 273 270 281 258 259 262 265 279 261 57 49 58 53 36 38 36 23
342 329 91 352 83 87 189 112 105 97 61 63 60 92 46 146 227 223 213 203 220 231 206 184 177 123 270 292 311 279 246 229 242 287 274 246 121 156 104 63 27 24 34 37 29